TIANMU-1 11 (58645 NORAD) Tracking and Keplerian Element Data

This shows tracking and keplerian element data for the satellite.

Feedback or suggestion? Click here.




ElementValue
Catalog58645
NameTIANMU-1 11
Epoch Orbit290
Epoch Day13.18796863
Epoch Year2024
RAAN42.3085
Inclination97.4192
Eccentricity0.0010715
Argument of Perigee204.5397
Mean Anonmoly155.5326
Mean Motion15.13762146
Decay Rate5.341E-05
L11 58645U 23205A 24013.18796863 .00005341 00000+0 29933-3 0 9999
L22 58645 97.4192 42.3085 0010715 204.5397 155.5326 15.13762146 2902



Live tracking and technical data element details for TIANMU-1 11 (NORAD 58645). TIANMU-1 11 can be tracked NOW for your location showing map with azimuth and elevation plus other details from your city location.







IsCatalogInMostPopularTable: catalog: 58645, numindb: 25
Update: records affected: 1



GetName: 58645 TIANMU-1 11

Hit Count: updated at: Wed, 17 Apr 2024 03:34:51 GMT